CFG21DS EHRD-EDDH

Flight info

Callsign CFG21DS
Flight time 0h 42m
Altitude 35000
Route EHRD/06 ANDIK M105 RIBSO RIBSO7A
Aircraft A320/M-SDE3FGHIRWY/LB1

Departure

Time 2026-05-06 12:59
Airport Rotterdam The Hague Airport (EHRD)

Arrival

Time 2026-05-06 13:42
Airport Hamburg Helmut Schmidt Airport (EDDH)
Time Latitude Longitude Altitude Speed Heading
2026-05-06 12:34 51.95068 4.43369 -5 ft 0 kts 327°
2026-05-06 12:54 51.95084 4.43358 -6 ft 6 kts 349°
2026-05-06 12:54 51.95118 4.43385 -5 ft 6 kts 43°
2026-05-06 12:54 51.95147 4.43449 -5 ft 8 kts 57°
2026-05-06 12:55 51.95195 4.43482 -5 ft 9 kts 343°
2026-05-06 12:55 51.95236 4.43434 -5 ft 7 kts 304°
2026-05-06 12:55 51.95229 4.43371 -5 ft 5 kts 243°
2026-05-06 12:55 51.95211 4.43324 -5 ft 5 kts 237°
2026-05-06 12:56 51.95195 4.43285 -5 ft 4 kts 235°
2026-05-06 12:56 51.95168 4.43220 -5 ft 11 kts 236°
2026-05-06 12:56 51.95127 4.43089 -5 ft 12 kts 246°
2026-05-06 12:56 51.95118 4.43057 -5 ft 0 kts 246°
2026-05-06 12:57 51.95110 4.43023 -5 ft 7 kts 254°
2026-05-06 12:57 51.95118 4.42953 -5 ft 6 kts 306°
2026-05-06 12:57 51.95146 4.42910 -5 ft 7 kts 323°
2026-05-06 12:58 51.95205 4.42865 -5 ft 11 kts
2026-05-06 12:58 51.95259 4.42952 -5 ft 12 kts 54°
2026-05-06 12:58 51.95362 4.43208 -5 ft 60 kts 56°
2026-05-06 12:58 51.95724 4.44108 -4 ft 127 kts 57°
2026-05-06 12:59 51.96242 4.45472 416 ft 142 kts 57°
2026-05-06 12:59 51.96750 4.46851 1189 ft 143 kts 54°
2026-05-06 12:59 51.97301 4.48311 1700 ft 163 kts 56°
2026-05-06 12:59 51.97939 4.49975 2191 ft 186 kts 56°
2026-05-06 13:00 51.98640 4.51862 2801 ft 208 kts 57°
2026-05-06 13:00 51.99418 4.54066 3054 ft 240 kts 60°
2026-05-06 13:00 52.00218 4.56484 3049 ft 247 kts 52°
2026-05-06 13:00 52.01573 4.58259 3783 ft 254 kts 26°
2026-05-06 13:01 52.03162 4.59502 4985 ft 252 kts 25°
2026-05-06 13:01 52.04730 4.60812 6005 ft 256 kts 33°
2026-05-06 13:01 52.06102 4.62716 6905 ft 263 kts 45°
2026-05-06 13:01 52.07382 4.64896 7818 ft 269 kts 45°
2026-05-06 13:02 52.08692 4.67111 8709 ft 274 kts 45°
2026-05-06 13:02 52.10016 4.69340 9603 ft 280 kts 45°
2026-05-06 13:02 52.11435 4.71651 10259 ft 294 kts 38°
2026-05-06 13:02 52.13226 4.73460 10582 ft 316 kts 27°
2026-05-06 13:03 52.15192 4.75185 11089 ft 330 kts 27°
2026-05-06 13:03 52.17238 4.76955 11836 ft 337 kts 26°
2026-05-06 13:03 52.19320 4.78749 12628 ft 342 kts 26°
2026-05-06 13:03 52.21454 4.80585 13404 ft 348 kts 26°
2026-05-06 13:04 52.23616 4.82454 14115 ft 353 kts 26°
2026-05-06 13:04 52.25789 4.84342 14802 ft 357 kts 26°
2026-05-06 13:04 52.27988 4.86266 15499 ft 361 kts 26°
2026-05-06 13:04 52.30212 4.88226 16196 ft 365 kts 27°
2026-05-06 13:05 52.32460 4.90211 16888 ft 369 kts 27°
2026-05-06 13:05 52.34730 4.92212 17575 ft 373 kts 27°
2026-05-06 13:05 52.37033 4.94239 18245 ft 377 kts 27°
2026-05-06 13:05 52.39355 4.96284 18819 ft 381 kts 27°
2026-05-06 13:06 52.41705 4.98357 19389 ft 386 kts 27°
2026-05-06 13:06 52.44077 5.00451 19967 ft 390 kts 27°
2026-05-06 13:06 52.46483 5.02573 20514 ft 395 kts 27°
2026-05-06 13:06 52.48878 5.04688 21079 ft 399 kts 27°
2026-05-06 13:07 52.51342 5.06868 21637 ft 404 kts 27°
2026-05-06 13:07 52.53835 5.09081 22197 ft 409 kts 27°
2026-05-06 13:07 52.56345 5.11313 22728 ft 413 kts 27°
2026-05-06 13:07 52.58886 5.13581 23299 ft 417 kts 27°
2026-05-06 13:08 52.61442 5.15867 23760 ft 421 kts 27°
2026-05-06 13:08 52.64037 5.18186 24219 ft 424 kts 27°
2026-05-06 13:08 52.66637 5.20505 24669 ft 427 kts 27°
2026-05-06 13:08 52.69234 5.22904 25098 ft 430 kts 32°
2026-05-06 13:09 52.71607 5.25921 25527 ft 433 kts 43°
2026-05-06 13:09 52.73632 5.29596 25936 ft 435 kts 54°
2026-05-06 13:09 52.75247 5.33822 26356 ft 436 kts 64°
2026-05-06 13:09 52.76412 5.38442 26761 ft 437 kts 72°
2026-05-06 13:10 52.77432 5.43184 27180 ft 439 kts 72°
2026-05-06 13:10 52.78455 5.47939 27595 ft 441 kts 72°
2026-05-06 13:10 52.79487 5.52739 27998 ft 444 kts 72°
2026-05-06 13:10 52.80519 5.57547 28387 ft 446 kts 72°
2026-05-06 13:11 52.81557 5.62387 28778 ft 448 kts 72°
2026-05-06 13:11 52.82594 5.67238 29165 ft 449 kts 72°
2026-05-06 13:11 52.83746 5.72074 29552 ft 452 kts 67°
2026-05-06 13:11 52.85075 5.76786 29924 ft 454 kts 66°
2026-05-06 13:12 52.86440 5.81509 30235 ft 455 kts 66°
2026-05-06 13:12 52.87825 5.86231 30532 ft 457 kts 66°
2026-05-06 13:12 52.89219 5.90968 30807 ft 458 kts 66°
2026-05-06 13:12 52.90606 5.95716 31070 ft 459 kts 66°
2026-05-06 13:13 52.91994 6.00505 31330 ft 461 kts 66°
2026-05-06 13:13 52.93374 6.05294 31676 ft 460 kts 66°
2026-05-06 13:13 52.94746 6.10087 32039 ft 459 kts 66°
2026-05-06 13:13 52.96088 6.14799 32388 ft 458 kts 66°
2026-05-06 13:14 52.97447 6.19579 32730 ft 457 kts 66°
2026-05-06 13:14 52.98800 6.24342 33070 ft 457 kts 66°
2026-05-06 13:14 53.00156 6.29110 33396 ft 457 kts 66°
2026-05-06 13:14 53.01509 6.33875 33719 ft 456 kts 66°
2026-05-06 13:15 53.02864 6.38645 34028 ft 457 kts 66°
2026-05-06 13:15 53.04218 6.43419 34283 ft 457 kts 66°
2026-05-06 13:15 53.05571 6.48212 34532 ft 458 kts 66°
2026-05-06 13:15 53.06919 6.53014 34763 ft 459 kts 66°
2026-05-06 13:16 53.08266 6.57826 34872 ft 459 kts 66°
2026-05-06 13:16 53.10954 6.67423 34892 ft 456 kts 66°
2026-05-06 13:17 53.13625 6.76988 34775 ft 456 kts 66°
2026-05-06 13:17 53.14959 6.81777 34536 ft 455 kts 66°
2026-05-06 13:17 53.16286 6.86561 34293 ft 455 kts 66°
2026-05-06 13:17 53.17608 6.91342 34059 ft 454 kts 66°
2026-05-06 13:18 53.18926 6.96121 33809 ft 453 kts 66°
2026-05-06 13:18 53.20244 7.00907 33541 ft 453 kts 66°
2026-05-06 13:18 53.21557 7.05678 33263 ft 453 kts 67°
2026-05-06 13:18 53.22864 7.10454 32986 ft 453 kts 67°
2026-05-06 13:19 53.24174 7.15246 32724 ft 454 kts 67°
2026-05-06 13:19 53.25488 7.20049 32455 ft 453 kts 67°
2026-05-06 13:19 53.26795 7.24828 32181 ft 452 kts 67°
2026-05-06 13:19 53.28097 7.29600 31926 ft 450 kts 67°
2026-05-06 13:20 53.29389 7.34338 31666 ft 448 kts 67°
2026-05-06 13:20 53.30679 7.39075 31401 ft 447 kts 67°
2026-05-06 13:20 53.31943 7.43737 31143 ft 445 kts 67°
2026-05-06 13:20 53.33219 7.48464 30885 ft 443 kts 67°
2026-05-06 13:21 53.34477 7.53140 30631 ft 441 kts 67°
2026-05-06 13:21 53.35729 7.57806 30199 ft 437 kts 67°
2026-05-06 13:21 53.36968 7.62422 29747 ft 434 kts 67°
2026-05-06 13:21 53.38201 7.67019 29203 ft 431 kts 67°
2026-05-06 13:22 53.39420 7.71571 28674 ft 428 kts 67°
2026-05-06 13:22 53.40240 7.74639 28313 ft 425 kts 67°
2026-05-06 13:22 53.41429 7.79099 27801 ft 423 kts 67°
2026-05-06 13:22 53.42619 7.83578 27288 ft 419 kts 68°
2026-05-06 13:23 53.43802 7.88033 26791 ft 416 kts 67°
2026-05-06 13:23 53.44973 7.92451 26297 ft 414 kts 68°
2026-05-06 13:23 53.46136 7.96858 25813 ft 411 kts 68°
2026-05-06 13:23 53.47289 8.01233 25334 ft 409 kts 68°
2026-05-06 13:24 53.48436 8.05593 24869 ft 406 kts 67°
2026-05-06 13:24 53.49573 8.09918 24406 ft 403 kts 67°
2026-05-06 13:24 53.50701 8.14211 23955 ft 401 kts 68°
2026-05-06 13:24 53.51822 8.18480 23509 ft 398 kts 68°
2026-05-06 13:25 53.52935 8.22730 22986 ft 396 kts 68°
2026-05-06 13:25 53.54038 8.26956 22471 ft 393 kts 68°
2026-05-06 13:25 53.55128 8.31143 21963 ft 390 kts 68°
2026-05-06 13:25 53.56217 8.35331 21463 ft 389 kts 68°
2026-05-06 13:26 53.57298 8.39499 20968 ft 389 kts 68°
2026-05-06 13:26 53.58374 8.43661 20482 ft 387 kts 68°
2026-05-06 13:26 53.59137 8.47953 20001 ft 380 kts 84°
2026-05-06 13:26 53.59124 8.52344 19533 ft 373 kts 101°
2026-05-06 13:27 53.58574 8.56589 19072 ft 369 kts 105°
2026-05-06 13:27 53.57993 8.60774 18615 ft 367 kts 105°
2026-05-06 13:27 53.57410 8.64938 18163 ft 364 kts 105°
2026-05-06 13:27 53.56829 8.69062 17638 ft 361 kts 105°
2026-05-06 13:28 53.56254 8.73127 17130 ft 353 kts 105°
2026-05-06 13:28 53.55688 8.77125 16621 ft 351 kts 105°
2026-05-06 13:28 53.55124 8.81113 16132 ft 350 kts 104°
2026-05-06 13:28 53.54569 8.85023 15662 ft 348 kts 104°
2026-05-06 13:29 53.54007 8.88964 15174 ft 346 kts 104°
2026-05-06 13:29 53.53445 8.92901 14706 ft 346 kts 104°
2026-05-06 13:29 53.52886 8.96819 14238 ft 344 kts 104°
2026-05-06 13:29 53.52328 9.00708 13726 ft 342 kts 104°
2026-05-06 13:30 53.51781 9.04529 13267 ft 328 kts 104°
2026-05-06 13:30 53.51262 9.08151 12952 ft 307 kts 104°
2026-05-06 13:30 53.50773 9.11542 12511 ft 294 kts 103°
2026-05-06 13:30 53.50297 9.14850 11864 ft 289 kts 103°
2026-05-06 13:31 53.49834 9.18058 11562 ft 273 kts 103°
2026-05-06 13:31 53.49397 9.21053 11344 ft 257 kts 103°
2026-05-06 13:31 53.48978 9.23931 10885 ft 252 kts 103°
2026-05-06 13:31 53.48558 9.26792 10392 ft 252 kts 102°
2026-05-06 13:32 53.48141 9.29635 10092 ft 250 kts 102°
2026-05-06 13:32 53.47728 9.32464 9805 ft 249 kts 102°
2026-05-06 13:32 53.47315 9.35282 9585 ft 248 kts 102°
2026-05-06 13:32 53.46910 9.38048 9273 ft 250 kts 102°
2026-05-06 13:33 53.46479 9.40993 8620 ft 267 kts 102°
2026-05-06 13:33 53.46032 9.44039 8257 ft 271 kts 103°
2026-05-06 13:33 53.45578 9.47098 7909 ft 269 kts 103°
2026-05-06 13:33 53.45156 9.50143 7494 ft 266 kts 96°
2026-05-06 13:34 53.45174 9.53214 7132 ft 261 kts 85°
2026-05-06 13:34 53.45328 9.56147 6958 ft 242 kts 84°
2026-05-06 13:34 53.45480 9.58836 6837 ft 223 kts 84°
2026-05-06 13:34 53.45620 9.61349 6677 ft 212 kts 84°
2026-05-06 13:35 53.45853 9.63754 6357 ft 208 kts 70°
2026-05-06 13:35 53.46596 9.65816 5880 ft 206 kts 52°
2026-05-06 13:35 53.47512 9.67636 5506 ft 198 kts 51°
2026-05-06 13:35 53.48369 9.69337 5283 ft 186 kts 52°
2026-05-06 13:36 53.49194 9.70983 4925 ft 181 kts 52°
2026-05-06 13:36 53.49981 9.72556 4697 ft 166 kts 52°
2026-05-06 13:36 53.50684 9.73963 4527 ft 148 kts 52°
2026-05-06 13:36 53.51313 9.75221 4309 ft 134 kts 53°
2026-05-06 13:37 53.51900 9.76399 4076 ft 129 kts 53°
2026-05-06 13:37 53.52475 9.77552 3750 ft 130 kts 52°
2026-05-06 13:37 53.53068 9.78746 3357 ft 135 kts 52°
2026-05-06 13:37 53.53667 9.79980 3018 ft 136 kts 53°
2026-05-06 13:38 53.54267 9.81196 2625 ft 135 kts 50°
2026-05-06 13:38 53.54873 9.82383 2325 ft 132 kts 50°
2026-05-06 13:38 53.55455 9.83552 2065 ft 128 kts 51°
2026-05-06 13:38 53.56022 9.84696 1833 ft 127 kts 50°
2026-05-06 13:39 53.56569 9.85812 1744 ft 125 kts 50°
2026-05-06 13:39 53.57133 9.86931 1558 ft 126 kts 49°
2026-05-06 13:39 53.57691 9.88056 1369 ft 124 kts 50°
2026-05-06 13:39 53.58248 9.89187 1236 ft 125 kts 50°
2026-05-06 13:40 53.58805 9.90303 1114 ft 124 kts 49°
2026-05-06 13:40 53.59361 9.91421 938 ft 124 kts 50°
2026-05-06 13:40 53.59917 9.92534 755 ft 127 kts 50°
2026-05-06 13:40 53.60477 9.93667 542 ft 125 kts 50°
2026-05-06 13:41 53.61030 9.94799 414 ft 127 kts 52°
2026-05-06 13:41 53.61602 9.95928 209 ft 125 kts 52°
2026-05-06 13:41 53.62149 9.97055 47 ft 121 kts 52°
2026-05-06 13:41 53.62608 9.97958 41 ft 80 kts 50°
2026-05-06 13:42 53.62856 9.98464 44 ft 36 kts 51°
2026-05-06 13:42 53.63006 9.98766 45 ft 32 kts 50°
2026-05-06 13:42 53.63149 9.99051 46 ft 33 kts 51°
2026-05-06 13:42 53.63281 9.99374 47 ft 33 kts 71°
2026-05-06 13:43 53.63279 9.99606 48 ft 4 kts 95°
2026-05-06 13:43 53.63277 9.99660 48 ft 6 kts 96°
2026-05-06 13:43 53.63277 9.99742 48 ft 8 kts 77°
2026-05-06 13:43 53.63314 9.99832 48 ft 11 kts 50°
2026-05-06 13:44 53.63368 9.99941 49 ft 14 kts 50°
2026-05-06 13:44 53.63410 10.00025 48 ft 1 kts 50°
2026-05-06 13:44 53.63423 10.00053 48 ft 7 kts 50°
2026-05-06 13:44 53.63430 10.00155 48 ft 12 kts 117°
2026-05-06 13:45 53.63410 10.00256 48 ft 8 kts 88°
2026-05-06 13:45 53.63414 10.00348 49 ft 0 kts 87°